Location: Nakusp
(50.2330°N, 117.8000°W)
Time: 18:33:19
(UTC-07:00)

Cosmos 1939 Rocket - Visible Passes

Search period start: 22 August 2014 00:00
Search period end: 01 September 2014 00:00
Orbit: 543 x 593 km, 97.6° (Epoch: 22 August)

Date Brightness Start Highest point End Pass type
(mag) Time Alt. Az. Time Alt. Az. Time Alt. Az.
22 Aug 4.2 21:57:04 12° SSW 22:00:36 38° W 22:04:33 10° NNW visible
23 Aug 4.1 20:23:23 10° ESE 20:26:54 27° ENE 20:30:26 10° N visible
23 Aug 4.3 21:58:25 13° SSW 22:01:51 37° W 22:05:46 10° NNW visible
24 Aug 4.1 20:24:35 10° ESE 20:28:08 27° ENE 20:31:41 10° N visible
24 Aug 4.3 21:59:47 13° SSW 22:03:06 36° W 22:07:00 10° NNW visible
25 Aug 4.1 20:25:47 10° SE 20:29:22 28° ENE 20:32:57 10° N visible
25 Aug 4.4 22:01:09 14° SSW 22:04:21 35° W 22:08:13 10° NNW visible
26 Aug 4.0 20:26:59 10° SE 20:30:36 29° ENE 20:34:12 10° N visible
26 Aug 4.4 22:02:32 14° SSW 22:05:36 34° W 22:09:26 10° NNW visible
27 Aug 4.0 20:28:11 10° SE 20:31:49 29° ENE 20:35:28 10° N visible
27 Aug 4.5 22:03:54 15° SSW 22:06:51 33° W 22:10:39 10° NNW visible
28 Aug 4.0 20:29:24 10° SE 20:33:03 30° ENE 20:36:43 10° N visible
28 Aug 4.5 22:05:16 16° SSW 22:08:05 32° W 22:11:52 10° NNW visible
29 Aug 3.9 20:30:36 10° SE 20:34:17 31° ENE 20:37:58 10° N visible
29 Aug 4.5 22:06:39 16° SSW 22:09:20 31° W 22:13:05 10° NNW visible
30 Aug 3.9 20:31:55 11° SE 20:35:30 32° ENE 20:39:13 10° N visible
30 Aug 4.6 22:08:01 17° SSW 22:10:35 30° W 22:14:18 10° NNW visible
31 Aug 3.8 20:33:18 12° SE 20:36:44 32° ENE 20:40:28 10° N visible
31 Aug 4.6 22:09:24 17° SW 22:11:49 29° W 22:15:30 10° NNW visible
